Content
SEND FEEDBACK

Daily
Averages
Monthly
Summary
United States of America

BLACK HAWK, SOUTH DAKOTA


Home > North America > United States > South Dakota
Elevation: 3352 feet     Latitude: 44 05N     Longitude: 103 16W

WEATHER
 
SELECT A DAY
Number of Records: 209,847;   Date Range: 1/1/95 - 12/19/14
 
SHARE

PRINT THIS DATA

[ ← Previous Day ]
WEATHER ALMANAC - JANUARY 18, 2013
[ Next Day → ]
[ °C ]   °F
Weather ElementAverageHighLow
Temperature41.7 °F58.3 °F (12:55 pm)31.3 °F (7:55 am)
Dewpoint16.1 °F19.9 °F (10:55 pm)13.5 °F (5:55 am)
Humidity37.6 %53 % (3:55 am)19 % (12:55 pm)
Barometer29.95 in30.02 in (8:55 am)29.89 in (1:55 pm)
Wind Speed8.2 mph16.1 mph (10:55 am)
Weather ElementAverage
Visibility10 mi
Wind DirectionWSW (247.4 °)

Weather ElementTotal
Precipitation---
Heating Degree Days20.2 (Base 65)
Averaged from 23 records on January 18, 2013
WEATHER CONDITIONS BREAKOUT
WIND DIRECTION BREAKOUT
WEATHER BY HOUR - JANUARY 18, 2013
[ °C ]   °F
Local TimeTemperatureDewpointHumidityBarometerVisibilityWind DirectionWind SpeedGust SpeedPrecipitationEventsConditions
1:55 AM34.7 °F18.9 °F52 %30.01 in10.0 miWSW (250°)5.8 mphMostly Cloudy
2:55 AM33.4 °F17.2 °F52 %29.99 in10.0 miSW (230°)9.2 mphClear
3:55 AM32.5 °F17.2 °F53 %29.98 in10.0 miWNW (290°)13.8 mphClear
4:55 AM35.2 °F14.9 °F43 %29.98 in10.0 miWNW (290°)11.5 mphClear
5:55 AM32.4 °F13.5 °F46 %29.99 in10.0 miCalmClear
6:55 AM33.8 °F14.7 °F46 %30.00 in10.0 miWest (260°)9.2 mphClear
7:55 AM31.3 °F14.9 °F51 %30.01 in10.0 miWSW (250°)8.1 mphClear
8:55 AM39.2 °F15.3 °F38 %30.02 in10.0 miCalmClear
9:55 AM46.4 °F19.8 °F35 %30.02 in10.0 miSSW (210°)3.5 mphPartly Cloudy
10:55 AM55.0 °F16.9 °F22 %29.96 in10.0 miNW (310°)16.1 mphClear
11:55 AM56.8 °F15.6 °F20 %29.92 in10.0 miWNW (300°)13.8 mphClear
12:55 PM58.3 °F15.4 °F19 %29.90 in10.0 miNW (320°)11.5 mphPartly Cloudy
1:55 PM52.7 °F14.2 °F22 %29.89 in10.0 miNNW (330°)13.8 mphClear
2:55 PM53.2 °F15.4 °F22 %29.90 in10.0 miNNW (330°)10.4 mphPartly Cloudy
3:55 PM49.5 °F15.1 °F25 %29.90 in10.0 miNW (320°)5.8 mphPartly Cloudy
4:55 PM45.7 °F13.6 °F28 %29.90 in10.0 miNW (310°)4.6 mphClear
5:55 PM37.9 °F14.4 °F38 %29.94 in10.0 miWest (260°)5.8 mphOvercast
6:55 PM38.1 °F14.2 °F38 %29.93 in10.0 miWSW (250°)6.9 mphClear
7:55 PM39.2 °F14.2 °F36 %29.93 in10.0 miVariable4.6 mphClear
8:55 PM37.9 °F18.5 °F46 %29.92 in10.0 miNW (310°)5.8 mphMostly Cloudy
9:55 PM38.8 °F18.9 °F45 %29.91 in10.0 miNW (320°)9.2 mphOvercast
10:55 PM37.4 °F19.9 °F49 %29.90 in10.0 miWSW (250°)5.8 mphMostly Cloudy
11:55 PM40.8 °F16.7 °F38 %29.90 in10.0 miWNW (300°)12.7 mphClear
Hourly data recorded from KRCA, located miles away from Black Hawk, South Dakota







STORIES FROM OUR PARTNERS